Tracking 19969 objects as of 13-Nov-2019
Live streaming from Space Station
objects crossing your sky now
Track the group of recently launched Starlink satellites

COSMOS 1275 DEB

Track COSMOS 1275 DEB now!
10-day predictions


NORAD ID: 12706
Int'l Code: 1981-053BA
Perigee: 904.0 km
Apogee: 1,067.6 km
Inclination: 82.9 °
Period: 104.7 minutes
Semi major axis: 7356 km
RCS: 0.0482 m2 (small)
Launch date: June 4, 1981
Source: Commonwealth of Independent States (former USSR) (CIS)
Launch site: PLESETSK MISSILE AND SPACE COMPLEX (PKMTR)

Note: This is SATELLITE DEBRIS
aabbcc
Your satellite tracking list
Your tracking list is empty




NASA's NSSDC Master Catalog

Two Line Element Set (TLE):
1 12706U 81053BA  19316.76088139 +.00000272 +00000-0 +25474-3 0  9991
2 12706 082.8799 308.1892 0111234 294.0108 127.9334 13.75848322907512
Source of the keplerian elements: AFSPC